Time,TemperatureF,DewpointF,PressureIn,WindDirection,WindDirectionDegrees,WindSpeedMPH,WindSpeedGustMPH,Humidity,HourlyPrecipIn,Conditions,Clouds,dailyrainin,SoftwareType,DateUTC
2013-08-23 00:13:00,70.0,68.0,30.08,NE,37,0.0,3.0,93,0.00,,,0.00,,2013-08-23 04:13:00,
2013-08-23 00:24:00,70.0,68.0,30.08,NE,37,0.0,0.0,93,0.00,,,0.00,,2013-08-23 04:24:00,
2013-08-23 00:43:00,70.0,68.0,30.08,NE,37,0.0,0.0,93,0.00,,,0.00,,2013-08-23 04:43:00,
2013-08-23 00:54:00,70.0,68.0,30.08,NE,37,0.0,0.0,94,0.00,,,0.00,,2013-08-23 04:54:00,
2013-08-23 01:13:00,70.0,68.0,30.08,NE,37,0.0,0.0,94,0.00,,,0.00,,2013-08-23 05:13:00,
2013-08-23 01:22:00,71.0,69.0,30.08,NE,37,0.0,1.0,94,0.00,,,0.00,,2013-08-23 05:22:00,
2013-08-23 01:52:00,71.0,69.0,30.08,NE,37,1.0,3.0,93,0.00,,,0.00,,2013-08-23 05:52:00,
2013-08-23 02:12:00,71.0,69.0,30.08,NE,37,1.0,3.0,92,0.00,,,0.00,,2013-08-23 06:12:00,
2013-08-23 02:22:00,71.0,69.0,30.08,NE,37,0.0,2.0,92,0.00,,,0.00,,2013-08-23 06:22:00,
2013-08-23 02:41:00,72.0,70.0,30.08,NE,37,0.0,2.0,92,0.00,,,0.00,,2013-08-23 06:41:00,
2013-08-23 02:52:00,71.0,69.0,30.07,NE,37,0.0,1.0,92,0.00,,,0.00,,2013-08-23 06:52:00,
2013-08-23 03:12:00,71.0,69.0,30.07,NE,37,0.0,1.0,92,0.00,,,0.00,,2013-08-23 07:12:00,
2013-08-23 03:22:00,71.0,69.0,30.06,NE,37,0.0,0.0,92,0.00,,,0.00,,2013-08-23 07:22:00,
2013-08-23 03:52:00,70.0,68.0,30.05,NE,37,0.0,0.0,93,0.00,,,0.00,,2013-08-23 07:52:00,
2013-08-23 04:13:00,70.0,68.0,30.06,NE,37,0.0,0.0,93,0.00,,,0.00,,2013-08-23 08:13:00,
2013-08-23 04:22:00,70.0,68.0,30.06,NE,37,0.0,0.0,94,0.00,,,0.00,,2013-08-23 08:22:00,
2013-08-23 04:52:00,70.0,68.0,30.06,NE,37,0.0,1.0,94,0.00,,,0.00,,2013-08-23 08:52:00,
2013-08-23 05:12:00,70.0,68.0,30.06,NE,37,1.0,5.0,94,0.00,,,0.00,,2013-08-23 09:12:00,
2013-08-23 05:21:00,70.0,68.0,30.06,NE,37,0.0,4.0,95,0.00,,,0.00,,2013-08-23 09:21:00,
2013-08-23 05:53:00,70.0,68.0,30.06,NE,37,0.0,3.0,94,0.00,,,0.00,,2013-08-23 09:53:00,
2013-08-23 06:13:00,70.0,68.0,30.06,NE,37,0.0,3.0,94,0.00,,,0.00,,2013-08-23 10:13:00,
2013-08-23 06:23:00,69.0,67.0,30.06,NE,37,1.0,3.0,94,0.00,,,0.00,,2013-08-23 10:23:00,
2013-08-23 06:42:00,69.0,67.0,30.06,NE,37,0.0,3.0,93,0.00,,,0.00,,2013-08-23 10:42:00,
2013-08-23 06:53:00,69.0,67.0,30.07,NE,37,0.0,1.0,93,0.00,,,0.00,,2013-08-23 10:53:00,
2013-08-23 07:11:00,68.0,66.0,30.07,NE,37,0.0,0.0,93,0.00,,,0.00,,2013-08-23 11:11:00,
2013-08-23 07:22:00,67.0,65.0,30.08,NE,37,0.0,0.0,93,0.00,,,0.00,,2013-08-23 11:22:00,
2013-08-23 07:42:00,67.0,65.0,30.08,NE,37,0.0,0.0,93,0.00,,,0.00,,2013-08-23 11:42:00,
2013-08-23 07:53:00,66.0,64.0,30.08,NE,37,0.0,0.0,93,0.00,,,0.00,,2013-08-23 11:53:00,
2013-08-23 08:11:00,67.0,65.0,30.09,NE,37,0.0,0.0,94,0.00,,,0.00,,2013-08-23 12:11:00,
2013-08-23 08:22:00,66.0,64.0,30.09,NE,37,0.0,0.0,94,0.00,,,0.00,,2013-08-23 12:22:00,
2013-08-23 08:42:00,67.0,65.0,30.10,NE,37,0.0,0.0,94,0.00,,,0.00,,2013-08-23 12:42:00,
2013-08-23 08:52:00,68.0,67.0,30.10,NE,37,0.0,1.0,95,0.00,,,0.00,,2013-08-23 12:52:00,
2013-08-23 09:11:00,69.0,68.0,30.10,NE,37,1.0,2.0,95,0.00,,,0.00,,2013-08-23 13:11:00,
2013-08-23 09:22:00,71.0,69.0,30.10,NE,37,1.0,3.0,94,0.00,,,0.00,,2013-08-23 13:22:00,
2013-08-23 09:42:00,72.0,70.0,30.10,NE,37,0.0,3.0,92,0.00,,,0.00,,2013-08-23 13:42:00,
2013-08-23 09:53:00,74.0,70.0,30.09,NE,37,1.0,5.0,87,0.00,,,0.00,,2013-08-23 13:53:00,
2013-08-23 10:12:00,75.0,69.0,30.09,NE,37,1.0,4.0,82,0.00,,,0.00,,2013-08-23 14:12:00,
2013-08-23 10:21:00,76.0,69.0,30.10,NE,37,1.0,8.0,80,0.00,,,0.00,,2013-08-23 14:21:00,
2013-08-23 10:42:00,77.0,69.0,30.10,NE,37,1.0,5.0,77,0.00,,,0.00,,2013-08-23 14:42:00,
2013-08-23 10:52:00,78.0,70.0,30.10,NE,41,1.0,6.0,76,0.00,,,0.00,,2013-08-23 14:52:00,
2013-08-23 11:11:00,79.0,70.0,30.10,NE,55,2.0,6.0,74,0.00,,,0.00,,2013-08-23 15:11:00,
2013-08-23 11:22:00,80.0,70.0,30.10,NE,56,2.0,6.0,71,0.00,,,0.00,,2013-08-23 15:22:00,
2013-08-23 11:44:00,80.0,70.0,30.10,NE,56,2.0,8.0,71,0.00,,,0.00,,2013-08-23 15:44:00,
2013-08-23 11:54:00,81.0,70.0,30.10,ENE,57,2.0,7.0,69,0.00,,,0.00,,2013-08-23 15:54:00,
2013-08-23 12:13:00,81.0,69.0,30.10,ENE,59,3.0,6.0,67,0.00,,,0.00,,2013-08-23 16:13:00,
2013-08-23 12:24:00,82.0,70.0,30.10,ENE,61,1.0,7.0,67,0.00,,,0.00,,2013-08-23 16:24:00,
2013-08-23 12:42:00,82.0,71.0,30.10,ENE,74,4.0,9.0,69,0.00,,,0.00,,2013-08-23 16:42:00,
2013-08-23 12:53:00,83.0,71.0,30.10,ENE,74,2.0,8.0,67,0.00,,,0.00,,2013-08-23 16:53:00,
2013-08-23 13:13:00,83.0,70.0,30.10,ENE,73,4.0,9.0,65,0.00,,,0.00,,2013-08-23 17:13:00,
2013-08-23 13:23:00,83.0,70.0,30.10,NE,53,2.0,8.0,66,0.00,,,0.00,,2013-08-23 17:23:00,
2013-08-23 13:43:00,84.0,70.0,30.10,NE,44,1.0,5.0,63,0.00,,,0.00,,2013-08-23 17:43:00,
2013-08-23 13:53:00,84.0,70.0,30.10,ENE,70,1.0,9.0,64,0.00,,,0.00,,2013-08-23 17:53:00,
2013-08-23 14:12:00,84.0,68.0,30.10,ENE,64,1.0,8.0,59,0.00,,,0.00,,2013-08-23 18:12:00,
2013-08-23 14:22:00,85.0,69.0,30.10,ENE,63,2.0,7.0,58,0.00,,,0.00,,2013-08-23 18:22:00,
2013-08-23 14:52:00,85.0,71.0,30.10,NE,49,3.0,8.0,63,0.00,,,0.00,,2013-08-23 18:52:00,
2013-08-23 15:12:00,85.0,70.0,30.09,NE,35,2.0,6.0,60,0.00,,,0.00,,2013-08-23 19:12:00,
2013-08-23 15:22:00,83.0,68.0,30.09,ENE,58,1.0,7.0,61,0.00,,,0.00,,2013-08-23 19:22:00,
2013-08-23 15:42:00,85.0,70.0,30.09,ENE,58,1.0,5.0,60,0.00,,,0.00,,2013-08-23 19:42:00,
2013-08-23 15:52:00,84.0,70.0,30.08,NNE,19,2.0,8.0,63,0.00,,,0.00,,2013-08-23 19:52:00,
2013-08-23 16:12:00,85.0,70.0,30.08,NNE,32,2.0,7.0,62,0.00,,,0.00,,2013-08-23 20:12:00,
2013-08-23 16:22:00,85.0,71.0,30.08,NE,36,1.0,7.0,63,0.00,,,0.00,,2013-08-23 20:22:00,
2013-08-23 16:42:00,85.0,68.0,30.07,NE,41,4.0,11.0,57,0.00,,,0.00,,2013-08-23 20:42:00,
2013-08-23 16:52:00,85.0,68.0,30.07,NE,51,1.0,7.0,57,0.00,,,0.00,,2013-08-23 20:52:00,
2013-08-23 17:11:00,86.0,69.0,30.06,ENE,74,2.0,8.0,58,0.00,,,0.00,,2013-08-23 21:11:00,
2013-08-23 17:22:00,85.0,70.0,30.06,ENE,74,2.0,5.0,60,0.00,,,0.00,,2013-08-23 21:22:00,
2013-08-23 17:43:00,85.0,70.0,30.06,ENE,74,2.0,7.0,60,0.00,,,0.00,,2013-08-23 21:43:00,
2013-08-23 17:54:00,85.0,69.0,30.06,ENE,74,2.0,8.0,59,0.00,,,0.00,,2013-08-23 21:54:00,
2013-08-23 18:13:00,85.0,69.0,30.06,ENE,74,1.0,7.0,59,0.00,,,0.00,,2013-08-23 22:13:00,
2013-08-23 18:24:00,85.0,69.0,30.06,ENE,74,2.0,8.0,59,0.00,,,0.00,,2013-08-23 22:24:00,
2013-08-23 18:43:00,84.0,68.0,30.06,ENE,59,0.0,6.0,59,0.00,,,0.00,,2013-08-23 22:43:00,
2013-08-23 18:53:00,85.0,69.0,30.06,ENE,59,1.0,5.0,58,0.00,,,0.00,,2013-08-23 22:53:00,
2013-08-23 19:12:00,84.0,67.0,30.06,ENE,58,1.0,5.0,57,0.00,,,0.00,,2013-08-23 23:12:00,
2013-08-23 19:22:00,84.0,68.0,30.06,ENE,58,0.0,2.0,59,0.00,,,0.00,,2013-08-23 23:22:00,
2013-08-23 19:43:00,84.0,69.0,30.07,ENE,58,0.0,2.0,60,0.00,,,0.00,,2013-08-23 23:43:00,
2013-08-23 19:54:00,84.0,69.0,30.08,ENE,58,0.0,1.0,60,0.00,,,0.00,,2013-08-23 23:54:00,
2013-08-23 20:11:00,83.0,70.0,30.08,ENE,59,0.0,1.0,64,0.00,,,0.00,,2013-08-24 00:11:00,
2013-08-23 20:22:00,82.0,69.0,30.09,ENE,59,0.0,1.0,66,0.00,,,0.00,,2013-08-24 00:22:00,
2013-08-23 20:43:00,80.0,68.0,30.09,ENE,59,0.0,2.0,67,0.00,,,0.00,,2013-08-24 00:43:00,
2013-08-23 20:53:00,79.0,69.0,30.09,ENE,58,0.0,0.0,72,0.00,,,0.00,,2013-08-24 00:53:00,
2013-08-23 21:11:00,77.0,69.0,30.09,ENE,58,0.0,0.0,76,0.00,,,0.00,,2013-08-24 01:11:00,
2013-08-23 21:22:00,75.0,68.0,30.10,ENE,58,0.0,0.0,80,0.00,,,0.00,,2013-08-24 01:22:00,
2013-08-23 21:42:00,73.0,68.0,30.11,ENE,59,0.0,0.0,83,0.00,,,0.00,,2013-08-24 01:42:00,
2013-08-23 21:53:00,72.0,68.0,30.11,ENE,58,0.0,0.0,86,0.00,,,0.00,,2013-08-24 01:53:00,
2013-08-23 22:12:00,71.0,67.0,30.11,ENE,58,0.0,0.0,87,0.00,,,0.00,,2013-08-24 02:12:00,
2013-08-23 22:22:00,70.0,66.0,30.12,ENE,58,0.0,0.0,88,0.00,,,0.00,,2013-08-24 02:22:00,
2013-08-23 22:42:00,69.0,66.0,30.12,ENE,58,0.0,0.0,89,0.00,,,0.00,,2013-08-24 02:42:00,
2013-08-23 22:52:00,68.0,65.0,30.12,ENE,58,0.0,0.0,90,0.00,,,0.00,,2013-08-24 02:52:00,
2013-08-23 23:12:00,68.0,65.0,30.12,ENE,58,0.0,0.0,91,0.00,,,0.00,,2013-08-24 03:12:00,
2013-08-23 23:22:00,67.0,64.0,30.12,ENE,58,0.0,0.0,91,0.00,,,0.00,,2013-08-24 03:22:00,
2013-08-23 23:44:00,67.0,65.0,30.13,ENE,58,0.0,0.0,92,0.00,,,0.00,,2013-08-24 03:44:00,
2013-08-23 23:55:00,66.0,64.0,30.13,ENE,58,0.0,0.0,92,0.00,,,0.00,,2013-08-24 03:55:00,